Wind_Speed
78 79 78 76 78 76 73 72 64 62 59 64 59 57 51 52 52 59 60 62 61 60 61 58 54 57 60 62 61 67 70 64 68 69 69 72 75 78 85 89 94 98 101
77 75 76 81 82 79 77 73 63 63 67 63 63 63 55 58 59 63 64 62 64 60 61 64 69 64 67 65 65 71 74 72 72 77 79 79 75 79 84 91 97 100 101
81 78 76 79 81 85 81 77 69 66 64 65 67 66 65 63 60 60 62 63 63 60 59 64 67 71 65 67 66 75 69 75 78 84 84 82 81 84 88 94 99 104 106
89 84 77 77 80 83 81 75 63 59 60 69 65 67 69 67 64 61 62 63 64 60 61 68 72 72 73 68 70 66 73 83 86 87 87 89 86 89 93 95 100 108 107
94 89 83 77 79 81 76 69 64 63 63 67 66 69 69 71 67 64 64 68 70 68 71 77 74 76 74 72 72 73 80 90 93 93 92 91 87 92 93 99 102 106 110
96 92 87 84 83 79 74 71 69 66 67 67 61 67 69 71 70 71 68 72 75 77 77 76 76 75 76 77 81 80 86 85 91 89 92 94 91 92 95 98 104 105 107
102 96 93 90 84 82 78 72 71 70 69 66 67 71 73 72 74 75 74 75 74 78 80 78 80 80 79 81 83 82 80 87 87 91 91 92 90 92 95 100 102 108 107
105 97 92 93 88 85 80 86 82 76 74 73 74 75 76 75 77 79 79 81 79 79 82 83 82 84 80 83 82 79 83 87 90 92 88 87 88 90 95 97 103 106 110
112 106 104 112 104 101 97 85 87 86 87 84 83 81 82 80 82 83 85 85 82 83 83 83 85 87 85 86 87 89 88 89 89 88 86 85 86 91 93 99 104 107 109
120 115 109 112 103 103 98 95 94 86 87 88 88 87 87 86 88 90 90 91 90 88 87 90 90 88 89 88 90 89 89 89 88 87 86 85 89 91 95 100 104 106 108
113 118 111 110 108 92 106 106 104 101 104 101 98 93 93 92 88 95 97 97 94 90 91 93 91 91 89 88 89 88 88 89 87 86 83 85 90 92 98 102 104 103 109
93 100 105 106 107 108 95 94 93 101 105 105 101 97 100 102 101 100 100 100 98 96 95 95 96 91 93 92 90 87 90 90 89 85 82 87 91 96 101 103 105 106 109
87 90 92 96 104 108 108 110 102 96 100 104 108 101 100 103 105 107 105 103 101 98 97 96 96 95 95 95 94 90 90 88 86 86 86 88 93 100 103 103 101 105 108
79 85 90 90 93 97 101 106 104 100 106 107 105 106 106 108 109 104 101 100 99 100 100 98 96 91 88 87 86 86 88 86 85 85 87 92 95 99 102 99 100 108 109
76 77 83 86 90 94 96 94 98 96 97 100 101 101 97 96 98 102 103 104 104 104 98 91 90 88 85 84 86 92 87 84 84 86 90 94 99 100 96 96 103 108 107
73 73 75 82 84 81 83 83 83 84 87 90 90 89 92 93 91 88 86 86 82 81 72 73 78 78 78 82 83 80 80 80 84 88 93 96 97 93 94 100 105 108 110
65 64 70 77 76 74 76 76 79 79 80 85 86 81 80 76 69 70 64 53 57 58 59 71 65 68 74 75 77 79 80 84 85 87 91 92 89 90 97 103 105 109 111
58 57 70 66 64 65 66 69 74 74 71 73 70 69 65 60 59 59 60 62 64 65 68 76 84 79 79 80 81 83 83 84 87 87 84 88 91 96 100 106 106 110 113
52 52 61 55 57 61 62 63 67 67 69 68 64 61 62 64 60 61 68 69 67 69 71 76 74 75 78 80 78 81 85 84 86 88 88 91 95 100 102 108 110 110 113
52 56 58 59 57 61 58 60 64 67 66 65 62 60 67 68 66 72 74 76 80 78 72 72 73 78 79 81 84 89 88 90 92 94 94 97 102 106 111 112 112 113 113
54 50 53 54 55 58 58 62 67 71 69 66 67 66 67 74 76 77 79 82 85 87 82 82 78 77 82 87 92 93 94 95 96 99 101 104 106 109 113 112 111 111 111
53 53 57 55 59 61 61 63 64 69 73 72 73 72 73 71 77 84 85 87 90 90 91 92 93 92 94 95 97 98 96 97 101 105 108 111 111 112 112 115 115 113 103
59 62 64 62 61 64 62 66 66 71 76 79 81 79 79 81 83 84 87 90 94 95 95 98 100 100 99 101 101 103 104 105 107 109 112 115 114 118 118 114 111 107 105
65 66 69 66 65 66 63 66 71 72 73 80 87 87 88 91 90 91 91 91 93 94 96 98 100 101 101 104 106 106 110 114 115 116 118 115 111 107 107 109 108 106 103
65 69 72 71 70 69 67 69 67 67 66 70 76 85 93 96 95 97 97 99 99 100 101 103 103 104 104 106 107 109 110 111 111 112 111 110 111 111 111 110 109 105 102
62 65 70 68 69 71 70 72 72 72 73 76 81 85 88 91 97 101 102 103 106 108 110 111 112 112 113 113 113 112 111 112 113 114 112 111 110 109 111 108 103 96 90
Wind_Direction
262 263 263 263 264 267 269 270 272 272 275 283 277 280 279 281 271 271 283 288 288 289 290 295 299 293 300 305 300 301 304 303 302 307 307 309 309 310 310 312 315 316 316
256 260 263 263 263 265 266 267 269 271 274 276 272 275 270 273 276 275 280 287 286 283 288 289 296 297 292 301 301 302 305 303 303 303 303 310 310 313 309 312 315 315 318
255 255 260 261 263 264 265 266 269 272 272 274 272 272 274 274 275 274 277 282 286 289 287 289 294 293 289 290 298 301 294 297 296 300 307 310 310 311 310 313 314 315 317
259 259 257 257 260 262 265 266 268 267 267 267 271 271 275 273 274 273 277 281 282 280 275 285 290 291 290 288 294 292 290 291 295 302 304 308 305 307 309 312 313 314 321
258 258 256 256 259 260 262 266 266 265 263 266 269 269 270 270 271 273 278 280 280 279 281 283 286 291 290 290 288 288 284 286 289 296 302 308 308 307 309 311 312 313 318
254 256 254 255 258 260 260 262 263 264 262 266 267 267 270 269 271 272 277 278 279 280 283 283 285 289 289 287 288 289 295 294 290 295 304 304 305 307 309 310 311 313 317
254 253 255 254 257 259 259 261 263 261 260 265 264 265 269 269 270 273 275 276 278 280 281 282 284 287 289 288 289 293 292 293 293 298 302 305 306 307 309 310 311 314 318
251 253 256 256 253 253 255 262 259 258 260 258 259 262 267 269 270 271 273 275 278 279 281 282 283 285 288 289 288 289 290 292 294 295 302 305 305 306 307 307 309 314 316
253 253 254 258 257 256 258 254 255 260 260 260 259 261 262 265 267 269 271 275 276 278 280 279 282 282 285 287 287 287 290 293 295 297 300 304 305 304 304 306 309 313 316
249 250 249 256 256 258 257 253 253 255 258 259 259 260 261 263 265 267 270 272 277 276 276 276 278 281 281 284 287 288 291 294 295 296 299 302 303 303 303 306 311 313 317
247 247 246 248 251 255 252 254 254 252 255 257 259 260 260 263 263 265 268 269 272 272 274 275 274 280 281 284 284 286 289 292 295 295 298 300 300 302 304 308 311 314 316
245 244 245 242 242 248 250 253 247 248 249 253 257 256 260 262 265 267 268 271 271 271 272 273 275 277 279 282 283 283 286 289 292 294 298 297 298 302 305 309 311 314 316
243 242 242 240 239 242 245 241 249 252 253 250 254 256 258 261 265 268 268 269 269 269 271 274 277 277 277 280 280 282 285 288 291 292 293 295 298 302 305 307 311 313 317
242 241 240 240 240 241 243 247 251 249 250 254 251 254 258 261 265 266 267 267 268 269 271 273 276 276 276 277 280 282 284 288 291 294 293 296 298 301 303 307 311 312 316
242 238 240 240 236 238 242 247 250 253 251 254 259 263 264 264 265 267 267 265 267 268 273 273 272 273 273 277 279 279 283 286 290 291 292 295 296 300 303 308 309 312 316
243 238 238 239 241 241 243 247 249 251 250 252 259 264 266 264 263 264 265 265 268 267 268 274 271 272 274 276 278 280 283 287 288 289 292 293 297 300 304 304 308 311 316
239 239 238 241 243 244 245 245 249 252 250 250 253 257 259 260 257 255 260 256 266 266 277 269 271 271 273 274 274 279 282 285 287 289 291 295 298 299 300 304 307 311 315
237 238 242 244 244 243 245 248 249 249 249 250 250 252 251 249 247 253 254 263 270 271 268 269 271 274 272 276 278 280 284 285 286 289 291 292 294 297 300 303 306 310 315
226 216 229 240 243 245 243 245 247 245 246 249 250 252 248 249 256 255 254 256 258 263 269 271 272 273 277 276 277 278 280 283 284 286 287 289 293 296 297 303 307 309 315
226 230 235 240 244 241 242 243 245 246 248 252 252 251 246 246 247 249 254 255 258 260 260 262 269 268 270 274 276 277 277 278 281 283 286 289 291 295 298 303 306 309 313
222 224 228 240 237 243 241 242 244 245 246 249 252 251 253 250 252 256 257 259 259 260 261 264 268 270 271 274 275 277 277 278 281 283 286 289 293 296 297 303 305 309 313
217 222 234 236 235 240 242 243 244 247 247 246 248 250 252 255 254 256 257 259 261 263 264 266 269 271 271 273 274 274 275 278 281 284 287 290 292 296 298 302 304 308 310
218 222 229 237 239 240 247 243 247 255 249 245 245 249 252 253 255 257 259 259 260 262 264 267 269 270 272 273 275 275 275 277 280 282 285 291 294 295 298 300 303 304 307
220 227 231 236 239 241 244 248 248 252 253 249 246 248 250 252 255 258 261 262 264 266 268 270 272 273 272 273 276 279 277 279 283 285 286 291 293 295 297 298 299 302 303
230 231 232 236 240 243 246 244 247 251 251 253 253 252 252 255 259 261 263 264 266 268 269 270 273 275 276 276 278 278 278 281 283 285 289 291 291 293 296 297 297 298 300
239 240 243 244 243 246 248 250 247 251 252 253 253 253 254 255 256 258 260 262 264 266 268 270 271 272 274 276 277 280 282 284 286 287 288 290 292 292 294 294 294 294 294
Height
10649 10648 10650 10651 10652 10657 10661 10664 10670 10669 10668 10670 10666 10665 10663 10661 10658 10654 10653 10650 10646 10643 10637 10633 10628 10623 10617 10611 10605 10599 10592 10587 10582 10575 10569 10562 10553 10543 10532 10523 10513 10499 10484
10631 10629 10629 10627 10632 10639 10642 10646 10654 10654 10654 10654 10651 10650 10649 10648 10646 10642 10639 10636 10632 10629 10623 10619 10615 10611 10606 10599 10592 10585 10578 10571 10566 10561 10554 10547 10538 10530 10518 10507 10493 10479 10467
10608 10609 10612 10610 10614 10615 10620 10626 10637 10640 10638 10636 10636 10635 10633 10632 10630 10628 10625 10622 10619 10615 10609 10605 10601 10597 10594 10586 10580 10572 10566 10559 10553 10548 10539 10531 10521 10513 10502 10490 10477 10462 10450
10582 10586 10592 10593 10593 10595 10602 10610 10620 10621 10621 10616 10619 10619 10617 10614 10614 10612 10610 10608 10605 10601 10595 10590 10589 10583 10578 10572 10567 10562 10554 10546 10539 10533 10525 10518 10509 10499 10491 10481 10462 10446 10435
10559 10560 10569 10574 10574 10575 10584 10594 10599 10601 10602 10599 10601 10600 10600 10597 10598 10596 10594 10591 10588 10586 10582 10577 10575 10569 10563 10557 10551 10547 10539 10531 10525 10520 10512 10503 10495 10485 10475 10464 10450 10436 10420
10535 10539 10546 10554 10554 10562 10567 10571 10576 10581 10582 10581 10582 10579 10581 10581 10581 10578 10577 10575 10572 10571 10567 10563 10559 10554 10549 10543 10535 10530 10524 10515 10509 10504 10497 10489 10481 10471 10460 10451 10437 10425 10415
10508 10518 10524 10533 10542 10546 10550 10554 10556 10559 10561 10565 10563 10561 10563 10563 10562 10560 10559 10557 10556 10555 10550 10546 10542 10537 10533 10527 10521 10516 10508 10500 10494 10490 10483 10475 10468 10458 10446 10434 10420 10406 10393
10480 10489 10497 10506 10517 10522 10528 10533 10533 10537 10540 10542 10541 10541 10542 10545 10542 10540 10538 10538 10539 10537 10533 10530 10524 10519 10516 10510 10504 10498 10492 10486 10481 10475 10468 10461 10453 10442 10432 10421 10409 10395 10371
10445 10459 10469 10471 10485 10491 10499 10506 10510 10513 10516 10518 10519 10521 10521 10522 10521 10520 10519 10520 10522 10519 10516 10511 10506 10503 10500 10495 10489 10483 10477 10471 10465 10459 10453 10445 10437 10428 10419 10406 10393 10379 10361
10411 10425 10440 10445 10456 10463 10474 10483 10485 10489 10491 10492 10494 10498 10500 10501 10500 10499 10498 10499 10501 10499 10497 10492 10487 10485 10482 10478 10473 10467 10461 10455 10450 10443 10437 10430 10421 10413 10403 10393 10382 10364 10350
10381 10391 10411 10422 10429 10430 10442 10451 10460 10465 10467 10467 10472 10476 10477 10478 10476 10476 10476 10476 10478 10478 10476 10471 10467 10467 10464 10460 10455 10450 10444 10438 10432 10426 10420 10412 10403 10394 10384 10375 10364 10350 10332
10354 10363 10378 10397 10401 10409 10415 10418 10422 10436 10440 10443 10449 10452 10454 10454 10453 10454 10454 10455 10454 10456 10455 10451 10450 10448 10444 10440 10436 10431 10427 10420 10415 10408 10403 10394 10385 10376 10367 10358 10347 10333 10319
10330 10340 10348 10360 10375 10382 10386 10390 10402 10409 10414 10421 10424 10428 10428 10429 10432 10432 10433 10432 10432 10434 10433 10431 10430 10426 10423 10419 10416 10412 10408 10403 10396 10391 10385 10377 10370 10360 10350 10341 10331 10319 10310
10306 10315 10324 10334 10346 10353 10361 10370 10380 10385 10389 10393 10403 10405 10406 10410 10408 10406 10408 10409 10411 10411 10411 10409 10407 10405 10403 10400 10396 10393 10389 10384 10379 10374 10368 10362 10354 10346 10336 10325 10315 10300 10290
10281 10293 10301 10310 10323 10333 10342 10350 10355 10364 10371 10374 10377 10380 10384 10385 10385 10384 10385 10388 10389 10389 10390 10387 10386 10385 10383 10380 10376 10373 10370 10366 10363 10357 10351 10345 10336 10330 10318 10310 10301 10289 10279
10261 10272 10283 10288 10298 10311 10321 10330 10337 10344 10349 10354 10356 10358 10361 10362 10364 10364 10364 10365 10367 10366 10367 10366 10364 10364 10363 10360 10357 10354 10351 10349 10345 10340 10334 10326 10320 10310 10302 10294 10286 10276 10266
10246 10258 10266 10271 10280 10293 10302 10311 10318 10325 10333 10338 10339 10341 10340 10342 10344 10343 10345 10344 10347 10345 10344 10345 10344 10342 10341 10338 10337 10335 10334 10331 10327 10321 10315 10309 10301 10292 10283 10279 10271 10263 10254
10236 10247 10251 10259 10268 10278 10284 10293 10300 10307 10313 10316 10318 10319 10320 10320 10320 10321 10323 10325 10325 10326 10326 10324 10323 10321 10320 10320 10318 10317 10315 10311 10307 10303 10296 10289 10281 10275 10269 10263 10258 10248 10242
10221 10225 10230 10242 10250 10256 10264 10274 10283 10289 10291 10294 10298 10300 10301 10301 10302 10304 10304 10303 10304 10303 10304 10303 10302 10301 10301 10299 10298 10296 10294 10290 10286 10282 10275 10269 10263 10257 10250 10246 10243 10233 10229
10210 10215 10222 10229 10235 10240 10250 10257 10263 10268 10272 10274 10277 10280 10281 10282 10280 10279 10280 10282 10282 10283 10283 10280 10281 10281 10278 10277 10276 10274 10272 10268 10263 10258 10255 10250 10243 10238 10234 10229 10224 10223 10215
10197 10204 10209 10214 10221 10227 10234 10239 10244 10248 10252 10255 10258 10261 10261 10262 10263 10263 10263 10264 10264 10264 10263 10262 10261 10260 10258 10255 10253 10252 10250 10246 10242 10238 10234 10229 10225 10221 10213 10212 10207 10205 10201
10186 10192 10196 10201 10207 10212 10218 10223 10227 10230 10232 10236 10239 10241 10241 10242 10243 10243 10242 10242 10243 10243 10241 10239 10239 10238 10236 10233 10230 10228 10226 10223 10220 10215 10214 10209 10204 10200 10196 10193 10189 10187 10185
10174 10180 10185 10189 10193 10197 10201 10205 10209 10209 10211 10214 10217 10219 10221 10220 10219 10218 10219 10220 10219 10218 10217 10215 10214 10213 10211 10208 10207 10206 10203 10201 10198 10192 10189 10188 10183 10180 10177 10173 10170 10166 10167
10161 10167 10171 10175 10179 10181 10184 10188 10189 10190 10191 10193 10196 10198 10198 10197 10198 10197 10198 10197 10196 10196 10193 10190 10187 10185 10186 10184 10182 10182 10178 10175 10174 10172 10172 10168 10164 10158 10155 10152 10148 10146 10143
10149 10153 10156 10160 10164 10167 10169 10169 10171 10172 10173 10173 10174 10176 10176 10176 10177 10177 10176 10175 10173 10171 10168 10165 10163 10161 10159 10158 10155 10153 10152 10151 10150 10147 10145 10143 10139 10136 10132 10127 10126 10122 10122
10139 10143 10146 10147 10149 10150 10151 10153 10152 10152 10152 10151 10151 10151 10151 10150 10149 10148 10146 10145 10144 10143 10140 10138 10136 10132 10130 10128 10128 10126 10124 10125 10126 10122 10119 10116 10114 10111 10107 10101 10098 10098 10098